Meath Environmental Platform

Observations for Trim Market St

Time AQI Temp °C Hum % Pres Pa CO μg/m³ H₂S μg/m³ NO μg/m³ NO₂ μg/m³ O₃ μg/m³ SO₂ μg/m³ PM1 μg/m³ PM2.5 μg/m³ PM10 μg/m³
Tuesday 14 July 2026
04:42 1 16.6 75 42,474 0.13 0 0 3.93 18.3 0 2.14 3.29 5.74
04:41 1 16.6 75 42,472 0.14 0 0 4.64 18.45 0 2.14 3.29 5.74
04:40 1 16.6 75 42,554 0.14 0 0 4.44 17.43 0 2.85 3.77 7.53
04:39 1 16.6 75 42,623 0.14 0 0 4.24 17.05 0 0.71 2.81 6.34
04:38 1 16.6 75 42,709 0.13 0 0 4.24 17.05 0 2.85 3.77 8.13
04:37 1 16.6 75 42,711 0.13 0 0 3.64 19.89 0 2.14 3.29 6.34
04:36 1 16.6 75 42,737 0.14 0 0.96 4.94 18.15 0 2.14 4.25 7.53
04:35 1 16.6 75 42,879 0.15 0 0 5.05 15.89 0 3.56 4.73 8.13
04:34 1 16.6 75 42,968 0.14 0 0.52 3.55 25.49 0 1.43 2.82 6.93
04:30 1 16.6 75 43,185 0.13 0 0 5.25 20.55 0 2.85 3.78 6.34
04:29 1 16.6 75 43,447 0.15 0 0 4.86 20.03 0 2.14 3.78 6.34
04:22 1 16.6 75 44,039 0.15 0 0 4.39 19.65 0 1.43 2.83 6.33
04:21 1 16.6 75 44,132 0.13 0 0 4.49 19.94 0 2.85 4.27 7.53
04:16 1 16.6 74 44,587 0.13 0 0 5.71 23.51 0 2.14 2.84 5.13
04:15 1 16.6 74 44,900 0.13 0 0.36 4.12 21.27 0 2.85 4.29 6.93
04:14 1 16.6 74 45,058 0.13 0 0 4.62 19.74 0 2.14 3.81 8.13
04:13 1 16.6 74 45,232 0.14 0 0 5.13 22.41 0 2.14 3.81 8.13
04:12 1 16.6 74 45,541 0.13 0 0 5.63 21.96 0 2.85 3.81 7.53
04:11 1 16.6 74 45,953 0.13 0 0 6.44 21.01 0 1.43 3.34 6.33
04:10 1 16.6 74 46,285 0.12 0 0 5.14 20.17 0 2.85 3.82 6.93